This is the latest recevied weather packets stored in our database for station/object WX1N. If no packets are shown the sender has not sent any weather packets the latest 1 day(s).
| Time | Temp. | Humidity | Pressure | Rain* | Wind** | Luminosity | Snow |
|---|---|---|---|---|---|---|---|
| 1778000403 | 26.11° C | 43% | 1003.3 hPa | 0 mm | 0 m/s | - | - |
| 1778000103 | 26.67° C | 44% | 1003.4 hPa | 0 mm | 0 m/s | - | - |
| 1777999804 | 26.67° C | 40% | 1003.5 hPa | 0 mm | 0 m/s | - | - |
| 1777999503 | 26.11° C | 47% | 1003.5 hPa | 0 mm | 0 m/s | - | - |
| 1777999204 | 26.11° C | 47% | 1003.5 hPa | 0 mm | 0 m/s | - | - |
| 1777998903 | 26.11° C | 45% | 1003.6 hPa | 0 mm | 0 m/s | - | - |
| 1777998603 | 25.56° C | 46% | 1003.7 hPa | 0 mm | 0 m/s | - | - |
| 1777998303 | 25.56° C | 43% | 1003.8 hPa | 0 mm | 0 m/s | - | - |
| 1777998003 | 25.56° C | 47% | 1004 hPa | 0 mm | 0 m/s | - | - |
| 1777997703 | 25° C | 47% | 1004.2 hPa | 0 mm | 0 m/s | - | - |
| 1777997403 | 24.44° C | 48% | 1004.3 hPa | 0 mm | 0 m/s | - | - |
| 1777997104 | 24.44° C | 51% | 1004.5 hPa | 0 mm | 0 m/s | - | - |
| 1777996803 | 24.44° C | 47% | 1004.5 hPa | 0 mm | 0 m/s | - | - |
| 1777996504 | 25° C | 53% | 1004.6 hPa | 0 mm | 0 m/s | - | - |
| 1777996203 | 24.44° C | 50% | 1004.6 hPa | 0 mm | 0 m/s | - | - |
| 1777995903 | 24.44° C | 52% | 1004.6 hPa | 0 mm | 0 m/s | - | - |
| 1777995603 | 23.89° C | 52% | 1004.7 hPa | 0 mm | 0 m/s | - | - |
| 1777995304 | 23.33° C | 51% | 1005 hPa | 0 mm | 0 m/s | - | - |
| 1777995003 | 22.78° C | 57% | 1005.3 hPa | 0 mm | 0 m/s | - | - |
| 1777994703 | 22.78° C | 51% | 1005.6 hPa | 0 mm | 0 m/s | - | - |
| 1777994403 | 22.78° C | 54% | 1005.7 hPa | 0 mm | 0 m/s | - | - |
| 1777994103 | 22.22° C | 55% | 1005.9 hPa | 0 mm | 0 m/s | - | - |
| 1777993804 | 22.22° C | 52% | 1006 hPa | 0 mm | 0 m/s | - | - |
| 1777993503 | 22.22° C | 53% | 1005.9 hPa | 0 mm | 0 m/s | - | - |
| 1777993204 | 22.22° C | 54% | 1005.8 hPa | 0 mm | 0 m/s | - | - |
* Rain latest hour (hover to see other rain measurements)
** Current wind speed in m/s (hover to see current wind gust speed)